STARLINK-1714, 46562

Orbit data source: Space-Track

STARLINK-1714, 46562 is a payload satellite owned by SpaceX/Seattle (US) in LEO that was launched on Tue, 06 Oct 2020 UTC via an FALCON 9 launch vehicle from the Air Force Eastern Test Range (AFETR). Payload-class satellites include a variety of spacecraft equipped with specific instruments for various scientific and technological missions. These include communications satellites like Starlink; space stations such as the ISS; scientific satellites like the Hubble; Earth observation satellites from companies like Planet Labs, Umbra, and HawkEye 360; GPS; miniature CubeSats for education and research; and military/defense satellites.

Loading next visibility...
Identifier
46562, 2020-070AG
Orbit
LEO
Country
Flag of USUS
Related business
Manufacturer
SpaceX/Seattle
Mission
Partially operational Commercial Communications
Bus & Motor
STARLINK, Unknown motor
Mass
260 kg wet, ~248 kg dry
Launch date (UTC)
2020-10-06 (5 years ago)
Launch vehicle
FALCON 9
Launch site
Air Force Eastern Test Range (AFETR)
Object type
Payload
Rocket body
Debris
Shape & HBR
Box + 1 Pan, 10.1 m
Radar Cross Section
13.562 m², Large (>1 m²)

Expand to show TLE details & history
Last TLE update: 8 hours ago

TLE from 8 hours ago
0 STARLINK-1714
1 46562U 20070AG  25346.95739078  .00099621  00000-0  29654-2 0  9995
2 46562  53.0525 167.5444 0006683 141.8940 218.2535 15.33900847286974
Epoch: 2025-12-12T22:58Z
TLE epoch observation values (Epoch: 2025-12-12T22:58:38.563Z)
Latitude
0.00001°
Longitude
100.99217°
Altitude
468.669 km
Speed
7.631 km/s
True Right ascension
11h 10m 10s
True Declination
0° 00' 00"
Sunlit
Object was in daylight at epoch
Visualization orbit readout
Latitude
Unknown
Longitude
Unknown
Altitude
Unknown
Speed
Unknown
Apparent Right ascension
Unknown
Apparent Declination
Unknown
Sunlit
N/A
Visualization observer readout
Local Sidereal Time
05:21:55
Azimuth
Unknown
Elevation
Unknown
Doppler factor
Unknown
Orbital elements
Apogee altitude
469.034 km
Perigee altitude
459.889 km
Semi-major axis
6,842.598 km
Eccentricity
0.00067
Inclination
53.0525°
RAAN
167.5444°
Arg. of periapsis
141.894°
True anomaly
218.20612°
Mean anomaly
218.2535°
Eccentric anomaly
218.22981°
Mean motion
3.83453 °/min
Orbital period
93.88 mins
BSTAR
0.0029654
Loading maneuver chart data...
Computing Atmospheric mass density...
Loading historical data...
Loading historical data...
Loading historical data...
Loading historical data...
Loading historical data...
Loading historical data...
Loading historical data...

Documentation

Showing up to 5 results
|